Temp
4 4 4 4 4 4 4 4 4 4 3 2 2 1 1 1 1 1 2 2 2 2 2 2 2 2 2 2 2 2 2 2 2 2 2 2 2 2 2 2 2 1 1 1 1 1 1 1 1 1 1 1 0 0 1 1 1 1 1 1 1 2 1
4 4 4 3 4 4 4 4 4 4 3 3 2 2 1 1 1 1 1 1 2 2 2 2 2 2 2 2 2 2 2 2 2 1 1 1 1 1 1 1 1 1 1 1 1 1 1 1 1 1 1 1 1 1 1 1 1 1 1 1 1 1 1
3 3 3 3 3 4 4 4 4 4 3 3 2 2 2 1 1 1 1 1 1 1 2 2 2 2 2 2 2 2 1 1 1 1 1 1 1 1 1 1 1 1 1 1 1 1 1 1 1 0 0 1 1 1 1 1 0 1 1 1 1 1 1
3 3 3 3 3 3 4 4 4 3 3 3 3 2 2 2 1 1 1 1 1 1 1 2 2 2 2 2 2 2 2 2 2 1 1 1 1 1 1 1 1 1 1 1 1 1 1 1 0 0 0 1 1 1 1 1 0 0 1 1 1 1 1
2 3 3 2 3 3 3 3 3 3 3 3 3 2 2 2 1 1 1 1 1 1 1 1 1 2 2 2 2 2 2 2 2 2 1 1 1 1 1 1 1 1 1 1 1 1 1 1 1 1 1 1 1 1 1 1 1 1 1 1 1 1 1
2 2 3 2 2 3 3 3 3 3 3 3 3 2 2 2 1 1 1 1 1 1 1 1 1 1 1 2 2 2 2 2 2 2 2 2 2 2 2 1 1 1 1 1 1 1 1 1 1 1 1 1 1 1 1 1 1 1 1 1 1 1 1
1 2 2 2 2 2 2 2 2 3 3 3 3 2 2 2 2 1 1 1 1 1 1 1 1 1 1 1 1 1 1 2 1 1 1 1 1 1 1 1 1 1 1 1 1 1 1 1 1 1 1 1 1 1 1 1 1 1 1 1 1 1 1
1 1 1 1 1 1 2 2 2 2 3 3 3 2 2 2 2 1 1 1 1 1 1 1 1 1 1 1 1 1 1 1 1 1 1 1 1 1 1 1 1 1 1 1 1 1 1 1 0 0 0 1 1 1 0 0 0 1 1 1 1 1 1
0 0 -0 -0 1 1 1 2 2 2 2 2 2 2 2 2 2 1 1 1 1 1 1 1 1 1 1 1 1 1 1 1 1 1 1 1 1 1 1 1 1 1 1 0 0 0 0 0 0 0 0 0 0 0 0 0 0 0 0 0 1 1 1
1 0 -1 -0 0 0 1 1 2 2 2 2 2 2 2 2 2 1 1 1 1 1 1 1 1 1 1 1 1 1 1 1 1 1 1 1 1 1 0 0 0 0 0 -0 -0 -0 -0 -0 -0 -0 -0 -0 0 0 0 0 0 0 0 0 0 0 1
1 0 -1 -1 -0 0 1 1 1 1 2 2 2 1 1 1 1 1 1 1 1 1 1 1 1 1 1 1 0 1 0 0 0 0 0 0 0 0 0 -0 -0 -0 -0 -0 -1 -1 -1 -1 -1 -1 -1 -0 -0 -0 -0 -0 -0 0 0 0 0 0 0
1 -0 -1 -1 0 0 0 0 1 1 1 1 1 1 1 1 1 1 1 1 1 1 1 1 0 0 0 0 0 0 0 0 0 0 0 0 0 -0 -0 -0 -0 -0 -0 -0 -1 -1 -1 -1 -1 -1 -1 -1 -1 -1 -1 -0 -0 -0 -0 -0 -0 0 0
1 -0 -1 -0 0 0 0 0 0 1 1 1 1 1 1 1 1 1 1 1 1 1 0 0 0 0 0 0 0 0 0 0 0 0 0 -0 -0 -0 -0 -0 -0 -0 -0 -0 -0 -0 -0 -0 -0 -0 -0 -0 -0 -1 -1 -0 -0 -0 -0 -0 -0 0 0
2 0 -0 -0 -0 0 0 0 1 1 1 1 1 1 1 1 1 0 0 0 0 0 0 0 0 0 0 0 0 -0 -0 -0 -0 -0 -0 -0 -0 -0 -0 -0 -0 -0 -0 -0 -0 -0 -0 -0 -0 -0 -0 -0 -0 -0 -0 -0 -0 -0 -0 -0 -0 0 0
2 1 0 0 0 0 0 0 1 1 1 1 1 1 1 1 0 0 0 0 0 0 0 0 -0 -0 -0 -0 -0 -0 -0 -0 -0 -0 -0 -0 -1 -1 -1 -1 -0 -0 -0 -0 -0 -0 -0 -0 -0 -0 -0 -0 -0 -0 -0 -0 -0 -0 -0 -0 -0 -0 0
2 1 1 1 0 0 0 -0 0 1 0 0 0 1 1 0 0 0 0 0 -0 -0 -0 -0 -1 -1 -1 -1 -1 -1 -1 -1 -1 -1 -1 -1 -1 -1 -1 -1 -1 -1 -1 -1 -1 -1 -0 -0 -0 -0 -0 -0 -0 -0 -0 -0 -0 -0 -0 -0 -0 -0 -0
2 1 1 1 0 0 -0 -0 0 0 0 0 0 0 0 0 0 0 -0 -0 -0 -1 -1 -1 -1 -1 -1 -1 -2 -1 -1 -1 -1 -1 -1 -1 -1 -1 -1 -1 -1 -1 -1 -1 -1 -1 -0 -0 -0 -0 -0 -0 0 0 -0 -0 -0 0 0 0 0 0 0
2 1 1 1 0 -0 -0 -0 -0 -0 -0 -0 -0 0 0 0 0 0 -0 -1 -1 -1 -1 -1 -1 -1 -1 -1 -1 -1 -2 -2 -1 -1 -1 -1 -1 -1 -1 -1 -1 -1 -1 -1 -1 -1 -1 -1 -0 -0 -0 0 0 0 0 0 0 0 0 0 0 0 0
2 1 0 0 -0 -0 -1 -1 -1 -0 -1 -1 -0 -0 -0 -0 -0 -0 -0 -0 -1 -1 -1 -1 -1 -1 -1 -1 -1 -1 -1 -1 -2 -2 -1 -1 -1 -1 -1 -1 -1 -1 -1 -1 -1 -1 -1 -1 -1 -1 -0 -0 0 0 0 -0 -0 -0 -0 -0 0 0 0
2 1 0 -0 -1 -1 -1 -1 -1 -1 -1 -1 -1 -1 -1 -1 -1 -1 -1 -1 -1 -1 -1 -1 -1 -1 -1 -1 -1 -1 -1 -1 -1 -1 -1 -1 -1 -1 -1 -1 -1 -1 -1 -1 -1 -1 -1 -1 -1 -1 -1 -0 -0 -0 -0 -0 -0 -0 -0 -0 -0 -0 -0
2 1 0 -1 -1 -1 -1 -1 -1 -1 -1 -1 -1 -1 -1 -1 -1 -1 -1 -1 -1 -1 -1 -1 -1 -1 -1 -1 -1 -1 -1 -1 -1 -1 -1 -1 -1 -1 -1 -1 -1 -1 -1 -1 -2 -2 -2 -2 -2 -1 -1 -1 -0 -0 0 -0 -0 -1 -1 -1 -1 -1 -1
2 1 1 -0 -1 -1 -1 -1 -1 -1 -1 -1 -1 -1 -1 -1 -1 -1 -1 -1 -1 -1 -1 -1 -1 -1 -1 -1 -1 -1 -1 -1 -1 -1 -1 -1 -1 -1 -1 -1 -1 -1 -1 -2 -2 -2 -2 -2 -2 -2 -1 -1 -1 -0 -0 -0 -1 -1 -1 -1 -1 -1 -1
2 1 1 -0 -1 -1 -1 -1 -1 -1 -1 -1 -1 -1 -1 -1 -1 -1 -1 -1 -1 -1 -1 -1 -1 -1 -1 -1 -1 -1 -1 -1 -1 -1 -1 -1 -1 -1 -2 -2 -1 -2 -2 -2 -2 -2 -2 -2 -2 -2 -2 -1 -1 -1 -0 -1 -1 -1 -1 -1 -2 -2 -2
1 1 1 0 -0 -1 -1 -1 -1 -1 -1 -1 -1 -1 -1 -1 -1 -1 -1 -1 -1 -1 -1 -2 -2 -1 -1 -2 -2 -2 -1 -1 -1 -1 -1 -1 -1 -1 -2 -2 -2 -2 -2 -2 -2 -2 -2 -2 -2 -2 -2 -1 -1 -1 -1 -2 -2 -2 -1 -2 -2 -2 -2
1 1 1 1 0 0 -0 -1 -1 -1 -1 -1 -1 -1 -1 -1 -1 -1 -1 -1 -1 -1 -1 -1 -1 -1 -2 -2 -2 -1 -1 -1 -1 -1 -1 -1 -1 -2 -1 -1 -1 -1 -2 -2 -1 -2 -2 -2 -2 -2 -2 -1 -1 -1 -2 -2 -3 -3 -2 -2 -2 -3 -2
0 1 1 0 0 1 0 0 -0 -1 -1 -1 -1 -1 -1 -1 -1 -1 -1 -2 -2 -2 -1 -1 -1 -2 -2 -2 -1 -1 -1 -1 -1 -1 -1 -1 -1 -1 -1 -1 -1 -1 -1 -1 -1 -1 -1 -1 -2 -2 -1 -1 -2 -2 -3 -3 -3 -3 -3 -3 -3 -3 -2
0 0 0 0 0 0 0 0 -0 -1 -1 -1 -1 -1 -1 -1 -2 -2 -2 -2 -2 -1 -1 -1 -2 -2 -1 -1 -1 -1 -1 -1 -1 -1 -1 -1 -1 -1 -1 -1 -1 -1 -1 -1 -1 -1 -1 -2 -2 -2 -2 -2 -3 -3 -4 -4 -4 -4 -4 -3 -3 -3 -2
-0 -0 -0 -0 -0 -0 -0 -0 -0 -1 -1 -1 -2 -2 -1 -1 -1 -2 -2 -2 -2 -2 -2 -2 -1 -1 -1 -1 -1 -1 -1 -1 -1 -1 -1 -1 -1 -1 -1 -1 -1 -1 -1 -1 -2 -2 -2 -2 -2 -2 -3 -3 -4 -4 -4 -4 -4 -4 -3 -3 -3 -3 -3
-1 -1 -1 -1 -1 -1 -1 -1 -1 -1 -1 -1 -2 -2 -2 -1 -1 -1 -2 -2 -2 -2 -2 -1 -1 -1 -1 -1 -1 -1 -1 -1 -1 -1 -1 -1 -1 -1 -1 -1 -1 -2 -2 -2 -2 -2 -2 -2 -3 -3 -3 -4 -4 -4 -4 -4 -4 -3 -3 -3 -3 -3 -3
-1 -1 -1 -1 -1 -1 -1 -1 -1 -1 -1 -2 -2 -2 -2 -2 -2 -2 -2 -2 -2 -2 -2 -2 -2 -2 -2 -2 -2 -2 -2 -2 -2 -2 -2 -2 -2 -2 -2 -2 -2 -2 -2 -2 -2 -2 -2 -2 -3 -3 -3 -4 -4 -4 -4 -4 -4 -3 -3 -3 -4 -4 -3
-2 -2 -2 -2 -2 -2 -2 -2 -2 -2 -2 -2 -2 -2 -2 -2 -2 -2 -2 -2 -2 -2 -2 -2 -2 -2 -2 -2 -2 -2 -2 -2 -2 -2 -2 -2 -2 -2 -2 -3 -3 -3 -3 -3 -3 -3 -3 -3 -3 -3 -4 -4 -4 -4 -4 -3 -3 -4 -4 -4 -4 -4 -4
-3 -3 -3 -3 -3 -3 -3 -3 -3 -3 -3 -3 -3 -3 -3 -3 -3 -3 -3 -3 -3 -3 -3 -3 -3 -3 -3 -3 -3 -3 -3 -3 -3 -3 -3 -3 -3 -3 -3 -3 -3 -3 -3 -3 -3 -3 -3 -3 -3 -3 -4 -4 -4 -4 -4 -4 -4 -4 -4 -4 -4 -4 -4
-4 -4 -4 -4 -3 -3 -3 -3 -3 -3 -3 -3 -3 -3 -3 -3 -3 -3 -3 -3 -3 -3 -3 -3 -3 -3 -3 -3 -3 -3 -3 -3 -3 -3 -3 -3 -3 -3 -3 -3 -3 -3 -4 -4 -4 -4 -4 -4 -4 -4 -4 -4 -4 -4 -4 -4 -4 -4 -4 -4 -4 -4 -4
-4 -4 -4 -4 -4 -4 -4 -3 -3 -3 -3 -3 -3 -3 -3 -3 -3 -3 -3 -3 -3 -3 -3 -3 -3 -3 -3 -3 -3 -3 -3 -4 -4 -4 -4 -4 -4 -4 -4 -4 -4 -4 -4 -4 -4 -4 -4 -4 -4 -4 -4 -4 -4 -4 -4 -4 -4 -5 -5 -5 -4 -4 -4
-4 -4 -4 -4 -4 -4 -4 -4 -4 -4 -4 -4 -4 -4 -3 -3 -3 -3 -3 -3 -3 -3 -3 -3 -3 -3 -3 -3 -4 -4 -4 -4 -4 -4 -4 -4 -4 -4 -4 -4 -4 -4 -4 -4 -4 -4 -4 -4 -4 -4 -4 -4 -5 -5 -5 -5 -5 -5 -5 -4 -4 -5 -5
-5 -5 -5 -5 -5 -4 -4 -4 -4 -4 -4 -4 -4 -4 -4 -4 -4 -4 -4 -4 -3 -3 -3 -3 -3 -4 -4 -4 -4 -4 -4 -4 -4 -4 -4 -4 -4 -4 -4 -4 -4 -4 -4 -4 -4 -4 -4 -4 -5 -5 -5 -5 -5 -5 -5 -5 -5 -5 -5 -5 -5 -5 -5
-5 -5 -5 -5 -5 -5 -5 -5 -5 -5 -5 -5 -5 -5 -5 -4 -4 -4 -4 -4 -4 -4 -4 -4 -4 -4 -4 -4 -4 -4 -4 -4 -4 -4 -4 -4 -4 -4 -4 -4 -4 -4 -4 -4 -4 -4 -5 -5 -5 -5 -5 -5 -5 -5 -5 -5 -5 -5 -5 -5 -5 -5 -5
Height
3141 3141 3141 3141 3140 3139 3138 3137 3136 3134 3133 3132 3131 3131 3131 3131 3131 3131 3132 3132 3132 3133 3133 3134 3134 3135 3135 3136 3136 3137 3137 3139 3140 3141 3141 3142 3142 3143 3144 3145 3145 3146 3146 3147 3148 3149 3149 3150 3150 3150 3150 3151 3152 3152 3153 3153 3152 3152 3153 3153 3153 3153 3153
3140 3140 3140 3140 3140 3139 3138 3137 3136 3134 3133 3133 3132 3131 3131 3130 3130 3131 3131 3131 3132 3132 3132 3133 3133 3134 3134 3135 3135 3135 3136 3137 3138 3139 3139 3140 3141 3142 3142 3143 3144 3144 3145 3146 3146 3147 3148 3148 3148 3148 3149 3150 3151 3151 3151 3151 3151 3151 3151 3151 3151 3152 3152
3139 3139 3140 3140 3140 3139 3138 3137 3135 3134 3133 3132 3132 3131 3131 3131 3131 3131 3131 3131 3132 3132 3132 3133 3133 3133 3134 3134 3134 3135 3135 3135 3136 3137 3138 3139 3140 3141 3141 3142 3143 3143 3144 3145 3145 3146 3147 3147 3147 3147 3148 3149 3149 3150 3149 3149 3149 3149 3149 3149 3149 3149 3150
3138 3138 3139 3139 3139 3139 3138 3137 3136 3135 3133 3132 3131 3131 3131 3131 3131 3131 3131 3132 3132 3132 3133 3133 3133 3133 3133 3134 3134 3135 3135 3135 3136 3136 3137 3138 3139 3140 3140 3141 3142 3142 3143 3144 3144 3145 3145 3146 3146 3146 3147 3148 3148 3148 3148 3148 3148 3148 3148 3148 3148 3148 3148
3137 3137 3137 3137 3138 3138 3137 3136 3136 3135 3134 3132 3131 3131 3130 3131 3131 3131 3132 3132 3133 3133 3133 3133 3133 3134 3134 3134 3135 3135 3135 3136 3136 3136 3137 3138 3138 3139 3140 3140 3141 3142 3142 3143 3143 3144 3144 3145 3145 3145 3146 3146 3147 3147 3147 3147 3147 3147 3147 3147 3147 3146 3146
3135 3135 3136 3136 3136 3136 3136 3136 3135 3135 3134 3133 3132 3131 3130 3130 3131 3131 3132 3132 3133 3133 3133 3133 3134 3134 3135 3135 3136 3136 3136 3137 3137 3137 3138 3138 3139 3139 3140 3140 3141 3141 3142 3143 3143 3144 3144 3144 3145 3145 3145 3146 3146 3146 3146 3146 3146 3146 3146 3146 3146 3145 3145
3135 3134 3135 3135 3135 3135 3135 3135 3135 3134 3134 3133 3132 3131 3131 3131 3131 3131 3132 3132 3133 3134 3134 3134 3134 3135 3136 3136 3137 3137 3137 3137 3138 3138 3139 3139 3140 3140 3140 3141 3141 3142 3142 3143 3143 3143 3144 3144 3144 3144 3145 3145 3145 3146 3145 3145 3145 3145 3145 3145 3145 3144 3144
3134 3133 3133 3135 3135 3135 3135 3135 3135 3134 3134 3133 3133 3132 3132 3131 3131 3131 3132 3133 3133 3134 3134 3135 3135 3136 3136 3137 3137 3137 3138 3138 3138 3139 3139 3140 3140 3140 3141 3141 3141 3142 3142 3143 3143 3143 3144 3144 3144 3144 3144 3144 3145 3145 3144 3144 3144 3144 3144 3144 3144 3144 3143
3130 3130 3132 3134 3135 3135 3135 3135 3135 3134 3134 3133 3133 3132 3132 3132 3132 3132 3132 3133 3134 3135 3135 3136 3136 3137 3137 3138 3138 3138 3139 3139 3139 3139 3140 3140 3141 3141 3141 3141 3141 3142 3142 3143 3143 3143 3144 3144 3144 3144 3144 3144 3144 3144 3144 3144 3144 3144 3144 3143 3143 3143 3143
3126 3127 3130 3132 3133 3133 3134 3134 3135 3134 3134 3133 3133 3133 3133 3133 3133 3133 3133 3134 3135 3135 3136 3136 3137 3138 3138 3139 3139 3140 3140 3140 3140 3141 3141 3141 3142 3142 3142 3142 3142 3142 3142 3143 3143 3143 3144 3144 3144 3144 3144 3144 3144 3144 3144 3143 3143 3143 3143 3143 3142 3142 3142
3124 3125 3127 3130 3130 3131 3132 3133 3134 3134 3134 3133 3133 3133 3133 3133 3133 3133 3134 3135 3135 3136 3137 3137 3138 3139 3139 3140 3141 3141 3142 3142 3142 3142 3143 3143 3143 3143 3143 3143 3143 3143 3143 3143 3144 3144 3144 3144 3144 3144 3144 3144 3144 3144 3143 3143 3143 3143 3143 3143 3142 3142 3141
3122 3123 3126 3127 3128 3129 3131 3132 3133 3134 3133 3133 3133 3133 3133 3133 3134 3134 3134 3135 3136 3137 3137 3138 3139 3139 3140 3141 3141 3142 3142 3143 3143 3143 3144 3144 3144 3144 3144 3144 3144 3144 3144 3144 3144 3144 3145 3145 3145 3145 3144 3144 3144 3144 3143 3143 3143 3142 3142 3142 3142 3141 3141
3120 3122 3124 3125 3127 3129 3130 3131 3132 3133 3133 3133 3133 3134 3134 3134 3134 3134 3135 3135 3136 3137 3138 3138 3139 3140 3140 3141 3141 3142 3142 3143 3143 3143 3144 3144 3144 3145 3145 3145 3145 3144 3144 3144 3144 3144 3144 3145 3145 3144 3144 3144 3144 3143 3143 3143 3142 3142 3142 3141 3141 3141 3140
3119 3120 3121 3123 3125 3127 3128 3130 3131 3132 3132 3133 3133 3134 3134 3134 3134 3134 3135 3136 3137 3137 3138 3138 3139 3140 3140 3141 3141 3142 3142 3142 3142 3143 3143 3143 3144 3144 3144 3144 3144 3144 3144 3143 3143 3144 3144 3144 3144 3144 3144 3143 3143 3143 3143 3142 3142 3141 3141 3141 3140 3140 3140
3117 3118 3120 3122 3123 3125 3127 3129 3130 3131 3132 3132 3132 3133 3133 3133 3134 3134 3135 3136 3136 3137 3137 3138 3138 3139 3140 3140 3141 3141 3141 3141 3141 3141 3142 3142 3142 3143 3143 3143 3143 3142 3142 3142 3142 3142 3142 3142 3142 3142 3142 3142 3142 3142 3142 3142 3141 3140 3140 3139 3139 3139 3138
3116 3117 3119 3120 3122 3124 3126 3128 3129 3130 3131 3131 3132 3132 3133 3133 3133 3134 3134 3135 3135 3136 3136 3137 3137 3138 3138 3139 3140 3140 3140 3140 3140 3140 3140 3141 3141 3141 3141 3141 3141 3141 3141 3141 3141 3140 3140 3140 3140 3140 3141 3141 3141 3141 3141 3140 3140 3140 3139 3138 3138 3137 3136
3114 3116 3117 3119 3120 3122 3125 3126 3127 3129 3130 3131 3131 3132 3132 3133 3133 3133 3133 3133 3134 3134 3134 3135 3135 3135 3136 3136 3137 3138 3138 3139 3139 3139 3139 3139 3139 3139 3139 3139 3139 3140 3140 3139 3139 3139 3138 3138 3138 3138 3138 3139 3139 3139 3139 3138 3138 3138 3137 3136 3136 3135 3134
3113 3114 3116 3117 3119 3121 3123 3124 3126 3127 3128 3129 3130 3131 3132 3132 3132 3131 3131 3132 3132 3132 3133 3133 3133 3134 3134 3134 3135 3135 3136 3136 3136 3137 3137 3137 3137 3137 3137 3137 3137 3137 3137 3137 3137 3137 3136 3136 3136 3136 3136 3136 3136 3136 3136 3135 3135 3135 3135 3134 3133 3133 3132
3112 3113 3114 3116 3117 3119 3121 3123 3124 3125 3126 3127 3129 3130 3130 3130 3131 3131 3130 3130 3131 3131 3131 3132 3132 3133 3133 3134 3134 3134 3134 3134 3134 3134 3134 3135 3135 3135 3135 3135 3135 3135 3134 3134 3134 3134 3134 3134 3133 3133 3133 3133 3133 3133 3133 3133 3132 3132 3131 3131 3130 3130 3129
3111 3111 3112 3114 3116 3117 3119 3120 3120 3121 3123 3124 3126 3127 3127 3128 3129 3129 3129 3129 3129 3130 3130 3130 3131 3131 3132 3132 3133 3133 3133 3132 3132 3132 3132 3132 3133 3133 3133 3133 3133 3132 3132 3132 3132 3131 3131 3131 3130 3130 3130 3129 3129 3129 3129 3129 3129 3129 3128 3128 3127 3126 3126
3109 3109 3110 3111 3113 3115 3116 3117 3118 3119 3120 3121 3123 3123 3124 3125 3125 3126 3126 3126 3127 3127 3127 3127 3128 3128 3129 3130 3130 3130 3130 3130 3130 3130 3129 3130 3130 3130 3130 3130 3130 3130 3130 3130 3129 3129 3128 3128 3127 3127 3126 3126 3126 3125 3125 3125 3126 3125 3125 3124 3123 3122 3122
3107 3107 3108 3109 3110 3111 3112 3114 3116 3117 3117 3119 3120 3120 3121 3121 3122 3122 3123 3124 3123 3123 3123 3124 3124 3124 3125 3126 3127 3127 3127 3128 3127 3127 3127 3127 3127 3127 3127 3127 3127 3127 3127 3127 3127 3126 3126 3125 3125 3124 3123 3123 3122 3122 3121 3121 3121 3121 3121 3120 3119 3118 3118
3105 3105 3105 3106 3107 3108 3109 3112 3113 3114 3114 3115 3115 3117 3117 3117 3118 3118 3119 3120 3119 3117 3119 3121 3122 3123 3124 3123 3123 3124 3124 3125 3124 3124 3125 3124 3124 3125 3125 3125 3125 3125 3125 3124 3124 3124 3123 3123 3122 3121 3120 3120 3119 3118 3118 3117 3117 3117 3116 3116 3115 3114 3113
3103 3103 3103 3104 3104 3105 3106 3108 3109 3110 3111 3110 3110 3112 3112 3112 3114 3115 3115 3115 3115 3115 3117 3119 3119 3120 3120 3120 3121 3121 3122 3122 3121 3122 3122 3122 3122 3123 3123 3123 3123 3123 3123 3122 3122 3121 3120 3120 3119 3118 3117 3117 3116 3115 3115 3114 3113 3112 3112 3112 3111 3110 3109
3101 3101 3101 3102 3102 3103 3104 3104 3105 3106 3106 3105 3105 3106 3107 3109 3111 3111 3111 3112 3113 3113 3114 3115 3115 3115 3116 3117 3118 3118 3118 3118 3118 3119 3119 3120 3120 3120 3120 3120 3120 3120 3120 3120 3119 3119 3118 3117 3116 3115 3114 3114 3113 3112 3112 3110 3109 3108 3108 3108 3108 3106 3105
3099 3099 3099 3100 3100 3100 3101 3101 3101 3102 3102 3101 3101 3104 3106 3107 3108 3108 3107 3109 3110 3111 3111 3112 3112 3113 3114 3115 3115 3115 3115 3115 3116 3116 3116 3117 3117 3117 3117 3117 3117 3117 3117 3117 3116 3116 3114 3114 3113 3112 3111 3110 3110 3109 3108 3107 3106 3105 3104 3104 3104 3103 3102
3097 3097 3097 3097 3097 3098 3099 3099 3099 3099 3099 3098 3099 3102 3104 3104 3104 3104 3105 3106 3107 3108 3109 3109 3110 3111 3111 3111 3111 3112 3112 3112 3113 3113 3113 3113 3114 3114 3114 3114 3114 3114 3114 3113 3113 3112 3111 3110 3109 3108 3107 3107 3106 3105 3104 3104 3102 3101 3101 3101 3100 3099 3098
3094 3094 3094 3095 3095 3095 3096 3096 3096 3097 3097 3096 3097 3099 3100 3101 3101 3102 3103 3104 3105 3105 3106 3106 3107 3108 3108 3108 3108 3108 3109 3109 3110 3110 3110 3110 3111 3111 3111 3111 3111 3110 3110 3109 3109 3108 3107 3106 3105 3104 3104 3103 3103 3102 3101 3100 3099 3098 3098 3097 3095 3094 3093
3091 3091 3092 3092 3092 3092 3093 3093 3093 3094 3094 3094 3094 3096 3097 3098 3099 3100 3100 3101 3102 3103 3103 3104 3104 3105 3105 3105 3105 3106 3106 3106 3107 3107 3107 3108 3108 3107 3107 3107 3107 3107 3106 3106 3105 3104 3104 3103 3102 3101 3100 3099 3099 3098 3097 3096 3096 3095 3094 3092 3091 3090 3089
3087 3088 3088 3089 3089 3089 3090 3090 3090 3091 3091 3091 3092 3093 3094 3096 3097 3098 3099 3099 3100 3101 3101 3101 3102 3102 3103 3103 3103 3103 3103 3104 3104 3104 3105 3105 3104 3104 3104 3104 3103 3103 3103 3102 3102 3101 3100 3099 3098 3098 3097 3096 3095 3094 3093 3092 3092 3091 3090 3089 3087 3086 3085
3083 3084 3085 3086 3086 3087 3087 3087 3087 3088 3088 3089 3090 3090 3091 3092 3094 3095 3096 3097 3097 3098 3098 3099 3099 3100 3100 3100 3101 3101 3101 3101 3102 3102 3102 3102 3101 3101 3101 3100 3100 3099 3099 3098 3098 3097 3096 3096 3095 3094 3093 3092 3091 3090 3089 3088 3087 3086 3085 3084 3083 3082 3080
3080 3081 3082 3083 3083 3084 3084 3084 3085 3086 3086 3087 3088 3088 3089 3089 3090 3091 3092 3093 3094 3095 3096 3096 3096 3097 3097 3098 3098 3098 3098 3098 3098 3098 3098 3098 3098 3097 3097 3097 3096 3096 3095 3095 3094 3094 3093 3092 3091 3090 3089 3088 3087 3086 3085 3084 3083 3082 3081 3080 3078 3077 3075
3077 3078 3079 3080 3081 3081 3081 3081 3082 3083 3084 3085 3085 3086 3086 3087 3087 3088 3089 3090 3091 3092 3093 3093 3094 3094 3094 3094 3094 3094 3095 3094 3094 3094 3094 3094 3094 3093 3093 3093 3092 3092 3091 3091 3090 3090 3089 3088 3087 3086 3085 3084 3083 3083 3082 3080 3079 3078 3076 3075 3073 3072 3070
3074 3075 3076 3077 3078 3078 3079 3079 3079 3079 3080 3081 3082 3083 3083 3083 3084 3085 3086 3087 3087 3088 3089 3090 3090 3090 3091 3091 3091 3091 3091 3091 3091 3090 3090 3090 3090 3089 3089 3089 3088 3088 3087 3087 3086 3086 3085 3084 3083 3082 3082 3081 3080 3079 3078 3076 3075 3073 3072 3070 3068 3066 3065
3070 3071 3072 3073 3074 3075 3075 3076 3076 3076 3077 3078 3079 3079 3079 3080 3080 3081 3082 3083 3084 3085 3086 3086 3087 3087 3087 3088 3088 3088 3088 3088 3087 3087 3087 3086 3086 3086 3085 3085 3084 3084 3083 3083 3082 3081 3081 3080 3079 3079 3078 3077 3076 3074 3073 3072 3070 3068 3067 3065 3063 3061 3059
3065 3066 3067 3067 3068 3069 3070 3071 3072 3072 3073 3074 3075 3076 3076 3077 3077 3078 3079 3080 3081 3081 3082 3083 3083 3084 3084 3085 3085 3085 3084 3084 3084 3083 3083 3082 3082 3082 3081 3081 3080 3080 3079 3078 3078 3077 3076 3076 3075 3074 3074 3073 3071 3070 3069 3067 3065 3063 3061 3059 3057 3056 3054
3059 3059 3060 3061 3062 3063 3064 3065 3066 3068 3069 3070 3071 3072 3072 3073 3074 3075 3076 3076 3077 3078 3078 3079 3079 3080 3081 3081 3081 3081 3080 3080 3080 3079 3079 3078 3078 3077 3077 3077 3076 3075 3075 3074 3073 3073 3072 3072 3071 3070 3069 3068 3067 3066 3064 3062 3060 3058 3056 3054 3052 3051 3049
Wind_Speed
11 11 11 10 10 11 12 12 11 8 6 6 6 6 6 6 6 6 7 7 8 9 10 11 13 13 13 14 13 14 14 13 16 17 17 16 15 13 12 12 11 12 11 11 11 10 10 11 12 13 13 13 12 12 13 13 14 15 14 13 12 11 10
11 10 10 11 10 10 11 11 10 9 7 5 5 6 6 7 7 6 6 6 6 7 8 8 9 9 9 10 10 10 11 12 14 16 16 15 14 12 11 11 10 11 11 11 11 10 10 11 12 13 14 14 13 14 14 14 14 15 15 14 13 13 12
12 10 10 10 10 9 10 11 10 9 8 6 5 5 6 7 6 5 4 5 5 5 6 6 6 6 6 6 6 6 7 8 9 11 12 12 11 10 10 9 10 10 10 11 11 11 11 11 12 13 12 12 12 13 13 12 12 13 13 14 14 14 14
15 13 11 10 9 9 9 11 10 9 8 7 6 5 5 6 5 4 4 3 4 4 5 5 4 4 3 4 4 4 4 4 5 6 6 7 8 8 8 8 9 9 10 10 10 11 11 11 11 11 11 11 10 10 10 10 10 11 11 12 14 14 14
18 16 13 11 9 9 10 11 10 9 8 7 6 5 4 4 4 4 3 3 3 3 3 4 3 3 3 4 4 4 4 4 4 4 4 5 5 6 6 7 7 8 8 8 9 10 10 10 10 10 10 10 9 9 9 9 9 9 8 9 10 11 11
21 19 17 14 11 9 10 11 10 8 6 5 5 4 3 3 3 3 3 3 3 3 4 4 4 4 4 5 5 5 4 4 4 3 3 3 3 4 4 4 4 4 4 4 5 5 6 6 7 7 7 7 7 7 8 8 8 7 7 8 9 9 9
23 24 25 20 14 10 10 10 9 7 5 4 3 3 2 2 2 3 3 3 4 4 4 4 4 5 5 5 5 5 5 4 4 3 3 2 2 3 3 3 3 2 2 2 2 3 3 4 4 5 6 6 6 7 8 8 9 9 9 10 10 10 10
26 30 30 23 15 10 9 9 7 6 4 2 2 2 2 3 4 4 3 3 3 3 3 3 3 4 4 4 4 4 4 4 3 3 2 1 1 1 1 1 1 1 1 0 1 1 1 2 2 3 4 4 5 5 6 6 7 8 8 9 9 10 10
28 33 30 21 14 10 8 8 6 4 3 1 1 2 3 4 5 6 6 6 5 4 4 3 2 2 1 0 0 0 1 1 1 2 2 3 4 4 4 4 4 4 4 4 3 3 2 2 1 1 1 2 2 3 4 4 4 5 6 7 7 8 8
22 26 24 18 14 11 9 8 6 5 4 3 3 4 5 6 7 9 10 10 10 10 9 9 8 8 7 6 5 5 5 5 5 5 6 6 7 7 7 7 6 6 6 6 5 4 4 3 3 3 3 3 3 3 4 4 5 5 6 7 8 8 8
15 16 18 18 16 14 13 11 9 7 6 5 6 7 8 9 10 11 12 13 13 13 12 12 11 10 9 8 8 7 7 6 6 6 6 6 6 6 6 6 5 5 5 4 4 3 3 3 3 3 4 5 5 6 6 7 7 7 7 8 9 10 10
14 14 17 18 17 16 16 14 12 10 8 8 8 9 10 11 11 12 13 13 13 12 12 11 10 9 8 8 7 7 6 6 5 5 4 4 4 3 3 3 3 3 2 2 1 1 1 1 2 3 4 4 4 5 7 8 9 9 10 10 10 11 12
14 17 20 20 17 16 17 16 14 12 11 10 10 10 10 11 11 11 11 11 11 10 10 10 9 8 6 6 6 5 4 3 3 3 3 4 4 4 4 4 3 3 3 3 3 3 3 3 3 4 4 4 5 5 7 8 10 11 12 12 13 13 14
15 19 22 21 19 18 17 17 16 15 14 12 12 12 11 11 11 10 10 9 8 8 7 7 6 5 4 4 4 4 3 2 1 1 2 3 5 6 7 7 7 7 7 6 6 6 6 6 6 6 7 7 7 8 8 10 11 13 14 15 16 16 17
14 19 22 22 20 19 17 18 19 18 16 15 14 14 13 13 12 11 10 9 8 7 7 7 6 4 3 3 4 4 4 4 4 4 4 5 6 6 7 8 9 9 10 10 10 10 10 10 10 10 10 10 10 10 11 12 13 15 16 17 18 19 19
11 16 20 22 21 19 17 20 23 21 18 16 16 15 15 14 13 12 12 11 11 10 9 8 7 6 5 5 5 6 7 8 8 8 8 8 8 8 8 9 9 9 10 11 12 13 13 13 13 14 14 13 13 13 13 14 15 16 18 19 19 20 20
11 15 18 20 22 19 17 21 24 23 19 17 18 18 16 16 16 15 14 14 14 13 13 12 11 9 9 8 8 9 10 10 11 12 12 12 11 11 10 11 11 11 11 12 13 14 15 15 15 16 16 16 16 16 16 16 17 18 19 20 21 21 21
11 15 18 20 21 21 19 21 25 26 22 19 20 19 17 17 19 18 17 17 17 17 16 16 15 13 12 11 11 11 12 13 14 14 15 15 15 14 14 14 14 13 14 14 15 16 17 17 18 18 19 19 19 20 20 21 21 22 22 23 23 23 23
11 15 18 21 22 23 22 22 25 27 26 22 21 21 20 20 21 19 19 19 19 19 19 17 16 14 13 13 13 14 14 15 16 17 18 18 18 18 17 18 17 16 17 17 18 19 19 20 21 22 23 23 24 25 25 26 25 25 26 26 27 27 26
14 15 18 21 24 25 24 25 27 29 29 26 23 24 24 24 23 22 22 22 22 21 20 19 17 15 14 14 15 17 18 19 19 20 21 22 22 22 21 21 20 19 18 18 18 20 22 23 24 25 27 28 28 29 29 28 27 28 28 29 30 30 30
17 17 17 20 25 27 28 28 29 30 31 28 26 27 28 27 27 26 26 25 24 24 23 22 21 19 18 19 20 20 20 20 20 19 21 23 25 25 25 24 23 21 20 19 19 21 23 24 26 27 29 30 31 31 32 31 30 30 30 31 32 33 33
18 19 18 19 24 27 29 30 30 31 31 29 29 30 31 31 31 31 31 29 29 29 28 27 26 25 24 25 26 25 21 19 18 19 20 23 25 27 28 27 25 22 20 20 21 22 24 25 26 27 29 30 31 33 34 34 33 32 32 32 33 33 33
18 20 20 20 22 26 29 31 32 32 33 33 32 32 33 34 33 33 34 33 35 36 33 30 29 26 25 25 23 22 21 19 19 20 20 21 23 25 26 27 26 23 20 20 21 23 24 25 27 28 29 31 32 34 36 35 35 35 34 34 34 34 34
17 19 21 21 22 25 28 30 33 34 35 35 35 33 34 35 33 33 34 34 36 34 28 24 23 20 20 21 20 20 21 20 19 20 20 19 20 22 23 24 25 24 24 24 25 25 26 27 28 29 31 33 34 36 36 35 36 37 37 36 34 34 34
17 18 20 21 23 24 26 28 31 32 33 35 36 33 32 32 29 30 32 30 28 25 19 17 18 16 17 20 21 21 20 18 18 18 19 20 20 21 22 22 23 24 26 27 28 29 30 31 31 32 34 35 35 35 35 35 37 39 39 37 35 35 36
18 19 21 22 23 24 25 25 27 27 29 32 30 22 20 23 22 23 25 24 22 20 18 17 18 17 19 21 21 19 18 17 18 19 19 21 21 22 23 23 24 25 26 27 29 30 31 33 33 34 35 35 34 33 34 34 36 38 39 38 36 37 38
20 21 22 23 24 25 25 25 26 25 26 28 24 16 15 19 19 18 20 20 19 19 18 18 19 19 20 20 19 19 19 19 20 21 22 22 22 23 24 25 26 27 27 28 29 30 31 32 33 34 34 33 31 31 32 33 35 38 40 39 38 38 39
23 24 24 24 25 25 25 25 26 26 25 25 22 17 16 18 18 18 18 18 18 18 18 19 20 21 21 20 20 20 21 21 22 23 23 24 24 25 26 27 28 28 29 29 30 30 31 32 33 33 32 30 29 31 33 36 38 41 41 40 40 40 40
26 26 26 26 25 25 24 25 25 25 25 23 20 18 17 17 19 19 18 18 18 18 19 20 21 21 21 21 22 22 23 23 24 24 25 25 26 27 28 29 29 30 30 31 31 32 32 32 33 33 32 32 33 35 37 38 40 41 41 40 40 40 41
28 28 27 26 25 25 24 24 24 24 23 22 21 20 19 18 19 20 20 20 19 19 20 20 20 21 22 22 23 24 25 25 26 26 27 27 28 28 28 29 29 29 30 31 31 32 32 32 33 33 33 34 35 37 38 38 39 40 40 40 40 41 42
29 27 26 26 25 24 23 23 23 23 23 22 22 21 20 20 20 21 21 21 21 20 20 20 20 21 22 22 23 24 24 25 26 27 27 28 28 28 28 28 28 28 29 29 30 31 31 32 32 32 33 34 35 37 39 39 40 40 40 40 41 42 43
28 26 25 25 25 24 24 23 23 23 23 23 23 23 22 22 22 22 22 22 22 21 21 21 21 21 21 22 23 23 24 25 26 26 27 27 28 28 28 29 29 29 29 30 30 31 31 32 33 33 34 35 37 39 39 40 40 40 41 42 43 44 45
30 29 27 27 27 27 26 26 26 26 26 26 26 25 26 26 25 25 24 23 22 22 22 22 22 21 22 22 23 23 24 25 27 27 28 28 28 29 29 29 30 30 30 30 30 31 32 32 34 35 36 37 38 38 39 39 40 41 42 43 44 45 46
30 31 30 30 31 31 31 30 29 29 28 28 28 28 28 29 28 28 27 26 26 25 25 24 24 23 23 23 24 25 26 27 28 29 29 30 30 30 30 30 30 30 30 31 31 32 33 34 35 36 37 37 38 38 39 39 41 42 43 44 45 46 46
30 31 32 33 34 35 35 35 34 33 31 29 28 29 30 30 30 30 29 29 29 29 28 27 27 26 26 27 27 28 29 30 30 30 31 31 31 31 31 31 30 31 31 32 33 34 35 36 37 37 38 38 38 39 40 41 42 43 45 46 46 45 45
33 33 33 34 36 37 38 38 37 36 33 31 30 30 31 32 32 32 31 31 31 31 31 31 30 30 30 30 31 31 32 32 32 32 32 32 33 33 33 33 33 34 34 35 35 36 37 37 37 38 38 39 39 40 41 42 43 45 46 46 46 45 45
35 36 36 37 37 37 37 36 36 35 34 33 32 31 32 33 33 33 33 33 32 32 32 32 32 32 32 33 33 34 34 34 34 34 34 34 35 35 35 36 36 37 37 38 38 38 38 38 38 38 38 38 38 39 41 42 44 45 45 45 45 45 45
Wind_Direction
305 313 326 339 346 351 352 351 350 345 334 316 301 293 290 281 273 275 273 266 260 258 257 258 261 265 268 271 271 267 259 248 248 252 254 256 259 260 260 258 257 259 261 262 264 264 263 262 262 267 274 279 283 283 284 287 287 285 284 283 285 292 297
288 295 309 324 333 339 342 344 346 344 337 320 294 280 276 274 276 281 280 275 270 265 265 268 271 275 279 282 281 277 269 256 248 248 250 253 256 258 260 258 256 256 257 259 262 262 261 261 265 270 275 279 282 286 288 288 286 285 284 281 280 284 287
282 283 294 307 317 323 331 336 338 340 336 328 309 282 266 265 270 275 275 275 274 272 276 279 282 286 288 291 290 285 278 269 260 255 253 254 259 261 263 263 261 259 258 260 262 264 265 268 272 274 277 280 284 287 287 285 283 283 282 280 279 280 282
281 278 281 291 303 309 317 326 332 333 330 327 317 299 279 265 255 253 260 271 274 274 277 281 284 287 286 289 294 294 294 292 288 280 272 268 268 267 266 267 267 265 262 263 264 265 266 266 268 271 274 276 278 279 278 277 277 278 279 281 282 284 285
273 271 270 274 287 303 311 316 322 324 324 322 313 302 289 266 238 230 239 256 271 274 277 281 283 278 275 276 282 290 299 307 310 303 291 283 277 274 273 271 270 268 266 266 267 267 265 264 265 269 273 276 276 274 270 268 269 273 277 282 287 291 293
263 261 260 261 269 290 306 310 312 314 319 317 302 291 277 256 228 215 219 233 252 264 271 279 283 281 278 276 277 282 285 292 297 296 290 287 283 277 274 271 270 270 269 268 268 267 266 269 273 274 277 281 281 278 274 272 272 274 278 282 285 289 293
258 261 263 260 251 265 289 297 300 303 310 309 286 267 243 219 196 194 205 222 235 247 256 263 272 275 275 274 275 275 276 280 281 283 283 276 270 261 256 259 259 259 260 263 267 270 272 274 277 279 281 283 283 282 283 283 284 285 284 283 281 282 284
255 258 269 269 249 248 269 275 281 289 296 300 267 232 199 175 156 152 157 181 206 221 237 246 255 260 263 266 271 273 274 277 276 279 279 264 247 226 225 225 229 225 222 237 259 259 266 265 269 278 282 285 287 285 286 288 292 295 296 294 291 292 293
261 256 266 271 254 245 251 251 253 258 254 232 172 156 150 148 141 137 135 136 139 139 140 141 144 148 141 127 73 60 85 95 102 108 110 109 106 108 111 114 118 118 115 109 104 105 100 91 74 27 318 305 303 298 301 306 309 312 313 313 312 312 313
274 259 257 258 250 239 231 228 222 213 201 161 140 134 131 132 130 128 125 123 123 122 121 118 114 109 104 98 93 92 92 93 96 100 103 105 105 104 106 109 112 112 110 106 98 89 77 61 39 19 359 345 335 325 322 323 323 324 323 323 322 321 321
268 250 241 242 238 226 216 208 198 191 179 154 140 132 129 126 125 125 123 122 123 122 120 119 116 113 111 106 99 94 89 86 87 87 88 92 95 97 101 103 106 107 104 99 89 78 67 47 25 14 360 345 338 332 327 326 327 325 324 325 322 319 319
253 226 226 233 231 226 221 212 199 186 174 161 149 139 133 129 127 127 126 126 127 127 125 123 122 120 117 113 107 101 95 87 79 72 65 63 65 67 69 73 77 79 75 72 64 39 21 7 1 358 351 340 330 324 322 322 324 322 321 322 320 317 316
250 221 222 229 228 228 229 225 212 194 180 172 163 153 146 139 136 134 133 134 134 134 134 132 130 129 126 125 122 118 114 102 83 59 29 9 0 357 354 351 348 343 336 319 302 293 290 295 307 314 316 313 307 306 306 308 310 311 313 314 315 315 314
251 225 220 224 226 227 229 228 219 203 192 184 178 173 166 159 153 150 149 149 146 146 148 147 145 143 146 152 156 158 163 169 186 256 312 320 320 322 323 323 322 318 313 306 300 296 292 290 292 293 293 293 294 296 295 297 300 302 305 308 309 310 310
248 229 223 225 229 230 229 229 223 215 209 201 195 190 184 179 175 171 171 172 172 173 173 174 178 186 194 202 210 217 225 232 237 242 254 268 280 290 297 300 303 305 305 304 302 300 299 298 297 295 294 293 295 296 296 296 297 298 301 304 306 308 307
245 235 232 233 237 236 231 228 226 226 225 218 210 206 200 195 193 192 190 190 190 191 191 192 199 211 224 237 246 252 256 257 256 254 254 256 259 265 274 279 283 288 292 294 295 297 298 298 299 299 299 299 299 298 298 297 296 297 299 301 303 305 305
242 240 240 241 242 241 232 227 229 232 239 237 226 218 213 209 207 205 202 199 198 198 199 201 206 214 223 233 242 252 259 263 264 263 262 261 260 262 268 273 276 277 277 278 283 286 288 291 293 296 298 299 298 298 299 299 299 299 300 301 302 303 304
245 241 242 242 242 241 235 231 234 237 243 251 241 228 224 224 220 215 211 207 205 206 208 212 218 223 230 237 242 246 250 254 257 259 260 260 260 263 268 272 274 276 275 273 275 277 279 282 285 289 293 295 295 296 298 300 302 302 302 303 304 304 303
250 241 238 238 238 238 234 233 237 239 243 252 248 235 231 234 233 228 223 221 219 218 219 221 226 234 246 254 258 257 255 256 256 257 260 261 263 266 269 272 272 271 273 275 277 278 277 279 282 286 289 292 293 294 296 298 300 303 304 305 306 305 304
248 243 237 234 234 235 233 231 234 238 242 247 244 236 236 240 241 239 236 234 233 233 233 232 233 241 251 258 263 264 262 259 258 260 262 264 267 269 270 271 270 268 269 273 276 278 280 281 283 286 289 292 294 295 295 296 298 301 303 304 306 306 305
243 244 239 232 231 233 234 234 235 238 243 246 240 235 239 243 244 241 239 239 241 243 243 239 235 237 246 257 265 266 262 260 260 261 263 263 264 266 266 266 266 264 264 267 271 275 280 285 287 289 291 294 296 297 297 298 300 300 301 303 305 305 305
239 240 238 231 230 232 234 236 238 243 247 249 245 240 240 244 245 244 243 243 245 245 242 239 238 239 248 260 264 259 255 258 262 265 266 264 262 262 263 263 263 263 262 265 270 273 277 282 285 287 290 292 294 295 297 298 299 299 300 302 304 304 305
237 238 238 234 232 234 236 238 240 244 248 252 252 247 243 243 245 247 247 245 245 247 249 251 252 249 251 257 259 252 251 259 265 267 270 270 266 265 266 266 267 270 271 270 272 273 275 277 281 284 287 290 292 294 295 297 298 298 299 302 303 303 303
237 238 239 240 238 238 239 240 241 244 248 251 252 249 244 243 245 250 251 247 247 255 260 260 257 250 246 250 253 252 254 260 264 266 269 272 271 269 270 270 271 274 277 277 276 276 277 279 281 284 286 289 291 294 296 298 298 298 299 301 303 302 302
238 236 237 241 243 242 241 241 242 244 246 248 249 248 246 248 249 249 249 248 254 264 266 257 252 250 248 250 253 254 255 257 260 263 266 268 268 268 269 271 273 274 276 278 278 279 279 280 282 284 287 290 292 293 294 295 297 298 298 301 303 302 301
238 234 234 236 239 240 241 242 243 245 247 250 254 252 242 241 243 240 240 245 251 256 256 252 253 254 252 251 252 254 257 258 260 262 264 266 268 269 271 273 276 278 279 280 281 282 283 283 284 286 289 290 291 292 294 295 295 294 295 298 300 300 300
239 233 231 234 237 238 240 242 244 246 248 253 259 257 234 229 232 231 233 239 243 245 248 251 253 253 252 252 254 258 261 263 264 267 269 271 273 274 276 277 279 281 282 282 283 284 284 284 284 285 286 287 290 292 292 290 288 288 291 295 296 296 296
236 234 233 234 236 238 238 240 242 244 245 247 250 249 236 230 232 234 235 236 238 241 244 247 250 253 255 257 260 263 265 266 268 270 271 274 275 276 277 279 280 281 281 281 281 281 281 281 281 282 283 284 286 286 284 283 284 287 291 293 294 295 295
231 230 231 232 235 237 237 238 239 241 242 243 245 244 238 232 234 238 241 242 242 242 244 248 252 256 260 264 266 267 269 270 272 273 274 275 277 278 278 279 279 280 279 279 278 278 279 279 280 282 282 282 281 280 281 283 285 288 290 292 293 294 295
227 227 229 231 232 235 236 237 239 241 243 244 245 245 242 238 236 238 240 243 244 245 248 251 254 257 260 263 265 267 270 271 273 274 275 277 278 278 279 278 278 278 278 278 278 279 280 281 282 284 285 284 283 283 284 286 287 289 291 292 293 294 294
227 227 228 229 230 232 234 236 238 240 242 244 245 246 245 242 240 240 240 241 243 246 249 251 254 257 259 262 265 268 270 272 274 275 276 276 277 277 277 277 277 277 277 279 280 281 282 284 285 285 285 284 283 284 286 288 290 292 293 293 294 295 296
231 230 229 229 229 231 232 233 235 238 240 242 243 244 244 243 242 242 242 242 243 245 248 251 255 259 262 266 270 273 276 278 279 280 280 280 279 278 278 278 278 279 280 281 282 283 284 285 285 284 283 282 283 285 288 290 291 293 293 294 295 296 297
233 233 234 234 234 233 232 231 232 235 238 241 242 242 243 244 245 246 247 248 249 251 253 256 260 263 267 272 276 280 283 285 286 286 286 285 284 283 282 282 282 282 282 283 283 283 284 283 283 282 283 283 285 287 289 291 292 292 293 294 295 295 296
236 235 237 239 239 239 239 237 235 235 236 239 241 243 245 247 249 251 253 255 257 259 261 263 265 268 272 276 280 282 284 286 286 287 288 287 286 285 284 284 284 283 283 282 282 281 281 281 281 282 284 286 288 289 290 291 292 293 294 294 295 295 295
249 244 243 242 241 241 242 242 241 239 240 241 242 242 244 246 248 250 252 254 257 259 261 263 265 267 269 272 275 278 280 281 282 284 285 285 285 284 284 284 283 283 282 282 281 281 281 281 282 284 286 288 289 290 291 292 293 294 295 295 295 296 296
257 250 246 244 244 243 242 242 242 241 241 243 243 243 242 244 246 248 250 252 254 256 258 261 262 264 266 269 273 275 276 277 279 281 282 282 282 282 282 283 283 283 283 282 282 282 282 283 284 286 287 288 289 290 292 293 294 294 295 295 296 297 298
256 250 245 242 242 242 241 240 240 240 242 244 245 246 246 247 248 249 250 250 252 254 256 258 260 263 266 269 272 274 274 274 276 278 279 280 280 281 281 282 282 282 282 282 281 281 282 284 285 287 288 290 291 292 292 293 294 294 295 295 296 296 297